This demonstration page uses our WeatherBlox Daily Observations layout. Learn more.

Left ArrowRight Arrow

53.62937, 11.41316

Hourly Observations for July 21, 2018

Temp ( °F °C ) Dew Point ( °F °C ) Humidity (%) Winds ( mph kmh ) Pressure ( in mb ) Visibility ( mi km ) Precip ( " mm )
6:50 am 06:50 Mostly Sunny 57 14 54 12 88 88 VRB 1 2 29.91 1013 7 11 N/A
7:20 am 07:20 Mostly Sunny 61 16 54 12 77 77 Calm 29.91 1013 7 11 N/A
7:50 am 07:50 Mostly Sunny 63 17 55 13 77 77 VRB 1 2 29.91 1013 7 11 N/A
8:20 am 08:20 Mostly Sunny 64 18 54 12 68 68 VRB 1 2 29.91 1013 7 11 N/A
8:50 am 08:50 Mostly Sunny 68 20 55 13 64 64 VRB 2 4 29.91 1013 7 11 N/A
9:20 am 09:20 Mostly Sunny 70 21 54 12 57 57 VRB 2 4 29.91 1013 7 11 N/A
9:50 am 09:50 Mostly Sunny 72 22 55 13 57 57 E 3 6 29.91 1013 7 11 N/A
10:20 am 10:20 Mostly Sunny 73 23 52 11 47 47 E 6 9 29.91 1013 7 11 N/A
10:50 am 10:50 Mostly Sunny 75 24 52 11 44 44 E 7 11 29.91 1013 7 11 N/A
11:20 am 11:20 Mostly Sunny 75 24 52 11 44 44 ESE 6 9 29.91 1013 7 11 N/A
11:50 am 11:50 Mostly Sunny 77 25 52 11 42 42 E 6 9 29.91 1013 7 11 N/A
12:20 pm 12:20 Mostly Sunny 77 25 52 11 42 42 NE 5 7 29.91 1013 7 11 N/A
12:50 pm 12:50 Mostly Sunny 79 26 52 11 39 39 N N/A 29.91 1013 7 11 N/A
1:20 pm 13:20 Mostly Sunny 79 26 50 10 37 37 E 5 7 29.88 1012 7 11 N/A
1:50 pm 13:50 Mostly Sunny 79 26 52 11 39 39 E 7 11 29.88 1012 7 11 N/A
2:20 pm 14:20 Mostly Sunny 79 26 50 10 37 37 NNE 5 7 29.88 1012 7 11 N/A
2:50 pm 14:50 Mostly Sunny 81 27 52 11 37 37 VRB 7 11 29.88 1012 7 11 N/A
3:20 pm 15:20 Mostly Sunny 79 26 52 11 39 39 NNE 6 9 29.88 1012 7 11 N/A
3:50 pm 15:50 Mostly Sunny 81 27 52 11 37 37 VRB 8 13 29.88 1012 7 11 N/A
4:20 pm 16:20 Mostly Sunny 79 26 50 10 37 37 NNE 8 13 29.88 1012 7 11 N/A
4:50 pm 16:50 Mostly Sunny 81 27 50 10 34 34 NNE 9 15 29.88 1012 7 11 N/A
5:20 pm 17:20 Mostly Sunny 81 27 52 11 37 37 NE 8 13 29.88 1012 7 11 N/A
5:50 pm 17:50 Mostly Sunny 81 27 52 11 37 37 NNE 8 13 29.88 1012 7 11 N/A
6:20 pm 18:20 Mostly Sunny 79 26 52 11 39 39 NNE 8 13 29.88 1012 7 11 N/A
6:50 pm 18:50 Mostly Sunny 79 26 52 11 39 39 NE 8 13 29.88 1012 7 11 N/A
7:20 pm 19:20 Mostly Sunny 77 25 52 11 42 42 NE 7 11 29.88 1012 7 11 N/A
7:50 pm 19:50 Mostly Sunny 77 25 52 11 42 42 E 6 9 29.85 1011 7 11 N/A
8:20 pm 20:20 Mostly Sunny 75 24 50 10 41 41 E 6 9 29.85 1011 7 11 N/A
8:50 pm 20:50 Mostly Sunny 75 24 52 11 44 44 E 5 7 29.85 1011 7 11 N/A

Powered by AerisWeather